Theta_e
332 330 331 331 330 331 331 331 333 333 330 330 331 331 330 330 329 329 328 328 327 325 324 324 324 326 327 327 329 330 329 328 329 328 328 328 326 325 325 325 326 326 327 327 328 328 327 328 329 329 330 331 331 332 332 332 332 331 331 331 331 330 330 330 329 328 328 328 327 327 327 325 325 326 328 328 330 330 329 329 329 329 330 330 331
332 331 330 330 329 330 332 333 334 334 332 330 330 331 331 330 330 328 327 327 326 324 323 323 323 325 326 327 328 327 326 326 326 326 325 325 323 322 322 322 323 323 324 326 328 327 325 326 328 328 329 330 331 331 332 332 331 331 330 331 331 330 330 330 330 329 328 328 327 328 329 328 326 325 326 327 328 329 328 328 329 329 329 329 330
334 333 330 329 330 331 332 333 335 334 333 331 331 331 332 331 329 328 328 327 325 324 321 321 322 323 325 326 326 325 324 324 324 324 323 323 322 321 321 321 322 322 323 325 327 327 325 326 327 327 328 329 329 330 331 331 331 331 331 331 331 330 330 330 330 330 329 329 328 330 332 332 331 329 328 327 326 327 326 326 328 330 330 330 330
334 334 332 330 330 331 333 333 335 334 333 333 333 333 333 332 329 328 329 326 324 324 322 323 323 323 324 324 324 322 320 319 319 320 321 322 322 322 321 320 321 321 322 323 325 326 325 326 326 326 327 328 329 329 329 330 330 330 330 331 331 330 329 329 330 330 329 329 329 330 329 331 335 333 330 329 328 329 328 327 328 328 328 329 330
334 336 334 331 329 331 333 332 334 334 333 333 333 333 333 333 331 329 329 326 323 324 324 323 323 323 324 323 322 321 319 318 319 321 322 322 322 322 321 321 320 320 320 321 323 324 324 325 324 325 327 327 327 327 327 328 328 329 329 330 330 330 329 328 329 329 329 329 330 330 329 332 336 332 331 331 329 330 330 328 328 327 327 328 327
334 335 334 332 328 331 333 332 333 333 333 333 332 333 333 334 332 329 327 326 324 325 325 323 323 322 323 323 321 320 320 319 321 323 322 322 322 321 321 321 320 320 320 320 320 322 323 323 323 324 326 326 325 325 325 326 327 328 329 330 329 330 329 328 328 329 329 329 329 329 329 331 332 330 332 332 328 329 329 327 326 325 326 326 325
334 334 333 331 329 330 333 332 333 333 333 333 332 332 332 334 333 328 327 327 326 326 324 323 323 322 322 322 321 320 320 321 322 322 322 321 321 319 319 320 320 320 320 319 319 321 322 322 322 324 326 325 323 324 324 324 326 327 328 328 329 329 328 328 327 327 328 327 328 329 328 329 329 328 331 331 329 329 327 326 326 325 325 324 324
334 333 332 331 329 330 332 332 333 333 334 333 332 332 330 332 331 327 330 329 325 324 323 322 323 322 322 321 319 319 321 322 322 321 321 320 319 319 319 319 319 319 319 319 317 318 320 320 321 323 324 323 323 324 323 324 324 325 326 326 326 327 328 327 326 327 327 325 327 328 328 328 328 328 328 328 332 332 329 328 326 324 325 324 325
333 332 332 331 328 330 332 333 333 333 335 333 332 332 330 331 330 328 332 329 322 323 323 322 323 323 321 319 318 320 321 322 321 321 320 321 321 321 321 320 319 318 318 318 317 316 317 317 317 318 319 321 322 322 322 322 322 322 324 324 324 325 327 326 325 325 324 324 325 326 327 328 327 326 326 326 330 332 331 329 323 320 323 320 322
332 331 331 330 328 329 331 333 333 333 335 334 334 333 332 332 330 329 332 328 322 322 322 322 323 321 319 317 318 321 321 321 320 320 321 322 322 321 320 319 317 316 316 317 317 315 315 315 313 313 313 314 317 320 320 320 320 320 321 322 324 324 324 323 321 320 320 320 322 323 325 327 324 320 320 322 325 325 325 323 317 317 320 317 316
330 330 330 328 327 328 330 332 333 334 336 336 335 335 334 334 331 329 331 327 323 323 322 321 321 319 317 318 319 321 321 320 320 322 323 322 321 319 318 317 316 314 314 314 315 315 315 314 313 314 313 312 313 314 316 317 318 318 319 320 321 321 319 317 317 317 317 317 318 319 321 322 318 316 315 317 318 318 321 320 314 314 316 315 314
328 330 332 330 329 328 327 330 332 333 335 336 336 336 335 335 332 329 330 328 324 323 322 322 320 317 317 319 320 321 320 319 320 322 322 321 319 318 318 317 315 313 312 312 313 314 315 314 314 315 316 316 315 313 313 314 316 317 318 318 318 317 316 316 316 315 316 315 315 315 316 316 314 314 314 314 314 315 317 316 313 314 317 315 314
331 333 334 333 332 328 325 328 329 331 334 335 337 336 335 335 333 330 329 327 324 324 323 321 318 316 319 322 321 321 320 318 320 322 321 320 318 318 318 316 313 312 311 311 311 312 313 313 314 316 316 315 315 314 313 314 315 316 316 317 318 317 315 315 315 315 315 314 313 312 313 313 313 313 313 313 313 313 312 313 312 313 315 314 314
332 333 333 335 332 326 325 327 328 329 331 334 335 336 336 334 332 329 328 326 324 324 323 320 317 318 321 322 321 320 319 318 320 321 320 319 319 319 318 314 311 310 310 311 310 310 310 310 312 314 314 314 315 315 313 311 312 312 312 312 315 317 316 314 314 314 314 313 312 311 312 313 313 313 312 312 311 311 311 311 311 312 312 311 312
330 332 335 336 330 325 326 326 327 328 328 331 333 334 334 330 326 325 325 325 324 324 322 319 319 319 321 321 321 320 318 318 320 320 319 320 320 319 317 313 310 309 309 311 311 309 307 307 308 310 312 314 315 315 313 310 309 309 309 308 310 312 314 314 313 313 313 312 311 311 312 312 311 310 311 311 311 311 311 311 311 313 316 314 311
330 332 335 332 326 325 327 326 326 327 327 328 329 331 331 325 322 324 326 325 324 323 322 320 319 320 322 321 321 320 319 318 319 320 319 320 320 319 318 315 312 310 310 310 311 309 307 306 305 307 311 314 315 314 313 310 307 307 308 309 308 308 310 313 314 313 313 311 310 309 310 311 310 307 308 311 312 312 312 312 311 311 316 320 317
330 331 333 330 324 324 327 327 327 328 326 327 328 328 328 323 322 325 326 326 325 323 322 321 319 320 322 322 321 320 319 318 318 318 319 320 320 319 319 317 315 313 311 311 312 311 309 307 305 306 311 314 314 314 313 310 307 306 307 308 308 307 307 311 313 313 312 311 310 309 309 310 309 308 309 310 312 311 311 311 312 310 313 317 319
328 329 329 327 323 323 326 327 328 328 327 327 327 327 326 324 325 326 325 326 326 324 322 321 319 319 321 322 321 320 319 318 318 318 319 319 320 320 319 319 318 316 313 312 313 313 311 310 307 306 309 312 313 313 312 311 310 308 308 308 308 308 306 307 310 312 312 312 311 309 308 309 310 309 309 309 309 309 309 309 311 311 311 313 314
327 327 327 326 322 321 323 324 327 329 328 328 327 326 325 326 326 325 324 325 326 324 322 320 319 319 320 320 320 320 319 319 319 319 319 319 320 320 320 319 319 318 316 314 314 314 313 312 310 309 308 309 311 313 313 312 312 312 310 310 310 309 307 305 306 309 310 311 311 308 308 309 311 311 310 309 309 309 310 309 309 310 310 311 311
327 326 327 326 321 319 321 321 323 325 327 327 327 325 325 326 326 324 324 325 325 324 321 320 320 320 320 320 319 320 320 319 319 319 320 320 320 320 320 320 319 319 318 317 316 315 315 314 313 312 311 309 309 311 312 311 313 314 313 311 311 309 309 308 307 307 309 310 310 308 307 307 310 312 311 309 309 310 310 309 310 310 309 310 310
327 326 327 324 320 320 321 320 321 322 324 325 326 326 326 326 325 326 326 324 324 324 322 320 320 320 320 321 321 320 320 320 320 320 321 321 320 320 320 320 320 319 319 318 317 317 317 316 315 314 314 313 311 311 312 311 311 314 314 313 312 311 310 311 309 307 308 310 310 310 310 308 307 309 310 309 308 309 309 309 310 309 308 308 308
327 327 328 324 319 319 320 321 321 321 322 324 325 326 325 325 325 325 325 323 323 324 322 321 321 321 321 321 321 320 320 321 320 320 320 321 320 319 319 320 320 320 319 319 319 318 318 318 318 317 316 316 315 313 313 312 311 313 314 313 313 312 311 312 311 309 308 309 310 310 311 310 307 306 307 308 308 308 309 309 309 308 307 307 307
328 329 328 322 318 319 319 320 320 319 320 322 324 325 325 325 325 325 325 322 322 324 323 323 323 323 323 323 322 320 320 320 321 321 320 321 320 319 319 320 320 320 320 319 320 319 319 319 318 318 317 317 317 316 315 315 313 312 313 313 314 312 311 312 312 311 309 308 309 310 310 310 310 307 306 307 308 308 308 309 308 307 307 307 306
328 329 325 319 318 319 318 318 319 318 319 320 323 324 324 324 324 325 324 322 322 323 323 323 324 323 324 324 323 321 321 320 320 320 320 321 321 319 319 319 319 320 320 319 320 319 319 319 318 318 318 318 318 318 317 317 316 315 314 313 313 313 312 312 312 312 311 310 309 309 309 309 309 308 306 305 307 308 309 309 308 308 307 306 306
327 328 327 323 321 319 317 317 317 317 318 319 321 322 323 323 323 323 324 323 323 323 323 323 323 322 323 324 322 320 320 321 320 321 320 320 321 320 320 321 320 320 320 320 320 320 320 320 319 319 319 319 319 318 318 318 318 317 316 314 314 313 313 313 313 312 312 312 311 309 309 309 309 309 308 306 306 308 309 309 308 307 305 303 303
325 327 328 325 323 318 315 316 315 315 316 318 320 321 322 323 322 323 323 323 323 323 322 323 322 323 323 323 322 320 319 320 321 321 321 320 321 321 321 322 321 321 321 320 321 320 320 320 320 320 320 319 319 319 319 319 319 318 317 316 315 314 314 314 314 313 312 312 313 311 310 310 309 309 309 307 306 307 308 308 307 304 300 298 298
323 325 324 323 323 317 314 314 314 313 314 315 317 320 321 322 323 323 323 323 322 323 323 322 322 321 321 320 320 321 321 320 321 321 320 320 321 320 320 321 321 321 322 322 321 321 321 321 321 320 320 320 320 319 319 319 319 319 318 317 316 315 315 314 314 313 312 312 313 312 311 311 310 309 309 308 307 307 307 307 305 300 297 296 295
320 321 320 320 321 318 312 312 313 312 313 312 314 316 318 320 321 322 323 323 323 323 323 321 320 319 318 318 320 322 322 321 322 321 321 320 320 320 319 320 320 321 321 321 321 320 321 321 321 321 320 319 319 319 320 319 319 319 318 318 317 316 315 315 315 314 313 312 312 312 311 311 311 309 308 308 307 306 306 305 303 300 298 296 295
317 319 319 318 320 317 311 310 311 311 312 312 312 313 313 314 316 319 321 322 323 323 322 321 321 320 320 321 322 323 323 323 323 322 323 322 321 321 320 320 320 320 320 320 320 320 320 320 320 320 319 318 317 318 320 319 319 319 318 318 317 316 316 315 315 315 313 313 312 312 311 311 310 309 308 308 307 305 305 304 303 301 299 297 296
316 316 317 317 318 313 308 309 311 311 311 312 312 312 311 311 311 313 316 319 320 322 321 321 321 319 319 319 319 320 321 321 321 321 321 321 321 320 321 320 320 320 320 320 320 320 321 321 320 320 319 319 318 319 320 320 319 319 319 318 318 317 316 315 315 315 314 313 312 312 311 311 310 309 308 307 306 305 304 304 303 301 299 298 298
317 315 315 315 314 310 306 308 310 310 311 311 311 311 310 310 309 309 311 313 315 316 317 317 317 314 313 314 312 313 315 316 316 317 317 318 319 320 320 320 320 320 319 320 320 320 321 321 321 321 321 321 320 320 321 320 320 320 319 319 318 318 317 316 315 315 314 313 312 311 311 310 310 309 308 307 306 305 304 303 303 302 300 299 299
319 316 314 313 312 309 306 306 308 308 310 310 310 310 309 309 309 308 308 309 310 311 312 312 311 310 311 312 311 311 313 313 312 313 314 315 316 316 316 316 316 316 316 317 318 318 319 320 321 321 321 321 321 321 321 321 321 320 320 319 319 319 318 317 316 315 314 313 312 311 311 310 309 309 308 307 305 304 304 304 303 302 300 300 300
318 316 313 311 310 308 305 305 307 308 308 309 309 309 308 308 309 308 308 307 308 309 309 308 308 307 308 309 309 309 309 310 310 310 310 310 310 310 311 310 311 311 311 312 313 314 314 315 317 319 320 320 320 320 321 320 320 320 320 320 320 319 319 318 317 315 314 313 312 311 310 309 309 309 308 306 305 304 304 304 303 301 300 300 300
313 313 311 309 308 307 307 307 306 306 307 308 308 308 307 307 308 307 307 307 307 307 307 307 307 307 307 307 307 307 308 308 308 308 308 308 308 308 308 308 309 309 309 310 310 311 311 311 312 314 316 316 317 317 317 318 319 320 320 320 320 319 319 318 317 316 314 313 312 311 310 309 308 307 306 305 305 304 304 303 302 301 301 301 301
312 313 311 308 307 308 307 306 304 304 305 305 306 306 306 306 307 307 307 306 307 307 307 307 307 307 307 307 306 307 307 307 307 307 307 307 307 307 307 308 308 308 309 309 310 310 310 310 311 312 312 314 315 315 315 315 317 319 320 320 320 319 319 318 317 316 314 313 311 310 309 308 307 307 306 305 304 303 303 302 301 301 301 300 300
312 311 310 308 308 307 306 305 305 305 305 304 304 305 305 306 306 307 307 307 307 306 306 307 307 306 307 307 307 307 307 307 308 307 306 306 306 307 307 307 307 307 307 307 308 308 309 309 310 311 311 312 313 313 314 315 316 318 319 319 319 318 317 316 315 314 312 311 310 309 308 308 307 306 304 304 303 302 302 301 301 300 300 299 299
309 308 308 308 308 307 307 306 305 306 306 306 304 304 305 305 305 306 306 306 306 306 306 306 306 306 307 306 306 306 307 308 308 308 307 306 307 307 306 307 307 307 307 306 307 307 307 307 308 309 310 311 311 311 313 314 316 317 318 318 318 316 314 313 312 311 311 310 309 307 307 306 305 304 303 302 302 301 301 301 300 299 299 298 298
306 304 305 306 306 305 306 306 305 305 306 305 304 304 304 304 304 304 305 305 305 305 305 306 306 306 306 306 306 306 307 308 308 307 308 307 307 307 307 307 307 306 306 306 306 306 306 307 307 308 309 310 310 311 312 314 317 318 317 317 315 314 311 310 309 308 308 307 305 304 304 303 303 302 302 302 302 302 301 301 300 299 298 297 297
303 302 303 304 303 303 304 304 304 303 304 304 304 304 304 304 304 304 304 304 304 305 305 305 305 305 305 306 306 306 306 306 306 307 307 307 307 307 307 307 306 306 306 306 306 306 307 307 308 308 309 310 310 311 313 315 317 317 316 315 314 312 309 308 306 305 304 304 303 302 302 303 303 302 302 302 301 301 300 299 298 297 296 296 295
299 300 301 302 302 302 303 303 303 303 303 303 303 303 304 304 304 304 304 304 304 304 305 304 304 304 305 305 306 306 306 306 306 306 307 306 306 306 306 306 307 307 307 307 307 307 307 307 308 309 310 311 312 313 314 316 316 316 314 313 311 310 308 305 304 303 303 302 302 302 302 302 302 301 301 300 299 298 297 297 296 296 295 294 294
298 298 299 299 299 300 300 301 301 302 302 303 303 302 303 303 304 303 303 303 303 304 304 304 304 304 304 304 305 305 306 306 306 306 305 305 305 306 306 306 307 308 307 307 307 307 307 307 308 309 310 311 313 313 313 314 313 312 311 310 309 308 306 304 303 302 302 301 301 300 299 298 298 298 297 297 296 296 296 296 295 294 294 293 292
299 298 299 299 299 299 299 300 300 300 301 302 302 302 302 302 302 302 302 302 303 303 304 304 304 304 304 304 304 304 305 305 306 306 306 306 305 305 306 307 308 308 307 307 307 307 307 308 308 309 310 310 311 310 310 310 309 308 307 307 306 305 303 303 302 300 299 298 298 297 297 296 296 296 296 296 296 296 295 295 294 293 293 292 292
299 299 298 299 299 299 300 300 300 300 301 301 301 302 302 302 302 302 302 302 303 303 303 304 304 304 304 304 304 304 304 304 304 304 304 305 305 305 306 307 308 307 307 307 307 307 307 308 308 308 309 309 308 307 306 305 305 305 305 304 304 303 301 301 301 299 297 297 296 296 296 295 295 296 296 295 295 294 294 293 293 293 293 292 292
298 299 299 299 299 300 300 300 300 301 301 301 301 301 301 302 302 302 302 302 302 302 303 303 303 303 303 303 303 304 304 303 303 303 303 303 304 304 305 306 307 307 307 307 307 307 307 308 308 308 308 307 305 303 302 302 302 302 302 302 301 300 299 299 299 297 295 295 295 295 295 296 296 296 295 294 293 293 293 293 293 293 293 292 292
298 298 299 299 299 300 300 300 300 301 301 301 301 301 301 302 302 301 302 302 302 302 302 302 303 303 303 303 303 303 303 303 303 303 303 303 303 303 303 304 305 306 307 307 307 307 308 308 307 307 307 304 301 300 299 299 299 299 299 299 299 298 298 297 297 296 294 294 295 295 295 295 295 294 294 293 293 293 293 293 293 293 292 292 291
298 298 298 299 300 300 300 300 300 300 300 300 301 301 301 301 301 301 301 301 301 302 302 302 302 303 303 303 303 303 303 303 303 303 303 303 304 304 304 304 304 306 307 307 307 307 308 307 307 306 304 301 298 297 297 297 297 297 297 297 297 297 297 296 296 295 295 295 295 294 294 294 294 294 293 293 293 293 293 293 292 292 291 291 291
298 298 299 299 299 299 300 300 300 300 300 300 300 300 300 300 301 301 301 301 301 301 302 301 302 302 302 302 303 302 303 303 303 303 303 304 304 304 304 305 305 306 307 307 307 307 307 306 305 304 302 298 296 296 296 296 296 296 296 296 296 295 295 295 295 295 294 293 293 293 293 293 293 293 293 292 292 292 291 291 291 291 290 290 290
298 299 299 299 299 299 299 299 299 299 300 299 300 300 300 299 300 300 300 300 301 301 301 301 301 302 302 302 302 302 302 303 303 303 303 304 304 305 305 305 305 306 307 307 307 306 306 306 305 303 300 296 294 295 295 295 295 296 295 295 295 295 295 295 294 293 292 292 292 293 293 293 292 292 292 291 291 291 291 290 290 290 290 290 289
299 299 299 299 298 299 299 298 298 299 299 299 299 299 299 299 298 299 299 299 299 300 300 300 301 301 302 302 302 302 302 302 303 303 303 304 305 305 305 306 306 307 308 308 307 307 307 307 306 304 301 297 295 294 294 295 295 295 295 295 295 295 294 292 292 292 292 293 293 293 292 292 292 291 291 291 291 290 290 289 289 289 289 289 289
298 298 298 298 298 298 298 298 298 298 298 298 298 298 298 297 297 297 298 298 298 298 298 299 300 300 301 302 302 302 302 302 302 302 303 304 305 305 306 307 307 308 308 308 308 307 307 307 306 305 302 300 298 296 294 294 295 295 295 295 294 293 292 291 292 293 293 293 292 292 292 291 291 291 291 290 290 289 289 289 288 288 288 288 288
296 297 297 297 297 297 297 297 297 297 297 297 297 297 297 297 297 297 297 297 297 297 297 297 298 299 299 300 301 301 302 302 302 302 303 303 303 305 306 307 307 307 307 308 307 307 307 306 305 303 301 300 298 296 294 295 295 295 294 293 292 292 292 292 292 292 292 292 292 292 291 291 291 290 290 290 289 289 288 288 288 288 288 288 288
Wind_Speed
12 17 20 20 18 18 16 17 25 28 28 32 31 29 29 28 27 26 25 25 25 25 24 23 23 23 22 21 18 15 14 14 14 13 12 11 9 7 5 5 5 5 5 5 5 7 7 6 5 5 3 4 7 8 10 13 12 10 8 6 7 7 8 9 9 9 7 3 2 3 3 3 5 5 3 4 7 8 6 5 5 4 4 8 13
9 12 15 19 20 20 18 19 27 28 28 31 30 28 27 26 26 26 26 25 24 24 24 24 23 23 23 23 21 18 16 15 15 15 14 12 10 8 6 5 5 5 6 5 6 6 7 7 8 8 6 7 8 8 9 12 12 10 8 7 7 7 7 8 8 7 5 4 2 1 1 2 3 4 4 4 3 5 4 3 3 4 4 5 8
9 9 11 16 20 21 19 20 26 27 29 30 29 28 26 25 26 27 26 24 23 23 24 23 21 21 22 23 23 20 16 14 13 13 12 10 10 8 6 6 7 7 7 7 8 7 6 8 10 10 9 8 7 7 6 8 10 10 9 7 7 6 5 7 8 5 3 4 2 1 1 1 2 3 3 5 4 3 3 1 3 6 5 4 6
11 10 9 12 17 19 19 22 25 26 29 30 29 29 27 26 27 28 26 24 24 25 24 22 21 21 22 23 22 19 17 14 12 12 11 10 9 8 7 7 7 7 7 8 9 8 7 9 11 11 11 9 8 7 6 5 6 8 8 8 7 6 5 6 8 6 5 6 3 1 1 2 1 3 2 3 3 3 3 3 4 4 3 2 3
14 12 10 11 15 18 20 24 25 26 29 29 30 29 28 28 28 27 27 25 25 24 23 22 22 23 24 23 20 19 17 15 15 14 13 12 10 9 9 8 8 6 7 9 9 8 8 9 9 9 10 11 11 10 9 8 6 5 7 8 7 6 6 6 7 7 7 6 2 2 2 1 2 2 0 1 1 1 1 2 3 3 3 3 4
13 14 13 11 13 16 20 24 25 25 28 30 31 29 28 28 26 26 26 25 24 22 22 22 23 25 25 24 22 22 20 17 18 17 14 12 10 9 9 8 8 7 7 9 8 8 9 9 8 9 11 13 13 13 13 12 10 8 6 6 6 6 7 7 6 7 9 7 3 3 2 1 2 1 1 0 1 1 1 2 1 2 2 2 3
10 11 11 11 13 15 19 24 25 25 28 30 31 29 29 28 25 26 26 22 22 22 22 23 24 25 25 24 23 24 22 20 19 17 14 12 10 9 8 7 8 7 7 10 10 10 11 10 10 11 13 13 12 13 15 15 14 12 9 6 4 4 7 8 7 6 7 7 5 4 3 2 1 1 2 1 0 1 2 2 2 2 3 4 5
10 10 10 10 14 17 20 24 25 26 29 30 31 30 30 28 26 26 25 22 23 25 25 25 25 26 25 24 23 23 23 22 21 18 15 14 13 12 10 9 8 7 7 10 12 14 14 13 13 14 14 13 12 13 14 14 14 13 11 9 6 4 4 6 7 4 3 5 7 7 4 1 1 2 2 2 2 1 1 2 2 4 5 6 8
11 11 10 11 15 19 22 25 25 27 30 31 31 31 30 28 28 27 24 24 26 26 27 26 26 27 26 25 24 23 24 24 21 19 18 17 15 14 12 10 8 7 7 9 12 14 14 14 13 13 13 13 13 13 13 13 12 12 11 10 9 8 6 6 7 5 5 5 5 6 3 1 2 4 3 3 3 2 1 2 5 5 4 4 5
10 11 12 14 18 21 22 24 25 26 29 30 31 31 31 30 30 29 26 26 29 27 27 28 27 27 26 26 25 25 25 25 23 22 20 18 17 15 12 10 9 9 9 10 11 12 12 11 11 12 11 11 11 12 12 12 12 12 12 11 11 12 12 11 10 10 9 8 6 6 4 2 3 5 5 4 4 4 3 1 4 5 3 5 9
11 10 8 9 13 18 20 23 24 24 25 28 30 31 32 32 32 31 28 28 30 29 28 28 28 27 26 26 26 27 28 26 25 25 23 21 19 16 14 12 11 10 9 10 11 11 11 10 11 13 13 11 11 11 10 10 10 11 12 12 12 12 13 13 13 13 13 14 12 10 9 7 6 7 7 7 6 5 4 1 4 4 2 5 12
8 7 6 7 9 12 16 19 22 23 24 26 29 31 33 33 33 32 31 31 32 30 29 28 28 27 27 27 27 28 28 27 27 28 25 23 20 18 16 14 12 10 10 10 12 11 10 11 12 12 13 12 11 10 10 9 9 9 10 11 11 11 11 11 12 12 13 14 15 14 13 11 10 9 8 8 8 6 5 3 3 4 2 5 10
6 6 6 6 7 9 13 17 20 23 24 26 28 30 31 32 34 33 30 30 30 28 27 27 28 29 28 27 28 28 26 26 27 28 27 23 21 21 19 16 14 12 12 12 12 12 12 12 12 12 12 11 10 10 9 9 8 9 9 10 10 10 10 10 11 11 11 11 12 11 11 10 10 9 6 7 7 6 6 4 3 3 2 4 9
6 6 6 6 6 9 13 17 20 22 24 26 27 29 31 33 32 28 24 26 29 28 26 25 25 26 27 27 28 27 25 24 26 27 26 24 22 22 19 17 17 15 15 14 13 13 12 12 12 12 12 11 9 9 9 8 8 9 10 10 10 10 10 11 11 11 11 11 11 10 10 10 9 7 6 6 6 5 7 6 2 2 3 4 7
6 6 5 4 6 10 15 17 19 22 24 24 26 28 29 24 14 14 16 19 23 24 24 24 20 20 24 28 27 26 24 23 24 25 25 23 22 21 19 18 18 17 17 16 15 14 13 12 12 13 12 11 9 9 8 8 9 10 11 11 10 9 10 11 10 10 11 10 9 9 9 9 8 6 6 7 8 8 9 8 5 4 2 4 6
6 6 6 4 5 8 14 18 19 20 21 22 22 25 23 16 17 19 16 16 19 20 20 20 19 17 21 27 27 25 25 24 24 23 23 23 22 20 18 18 17 18 18 17 16 14 13 13 13 14 13 11 10 9 8 8 8 9 10 10 11 10 10 12 11 10 10 9 8 7 7 8 8 7 6 7 8 9 8 8 9 8 4 2 3
6 6 5 4 7 8 7 15 19 20 20 20 20 22 19 15 15 15 17 21 24 23 20 18 19 19 21 24 24 24 25 25 24 23 23 23 21 19 18 18 17 17 17 17 16 14 13 13 13 14 14 12 11 9 7 7 8 8 9 9 10 9 10 12 11 10 10 9 8 7 7 8 9 9 9 8 7 7 7 7 8 9 7 4 2
5 6 6 6 7 10 10 9 14 19 21 21 20 19 16 13 14 18 21 23 24 25 24 21 20 21 23 22 22 24 26 26 24 23 23 24 23 21 19 19 18 17 17 16 16 14 13 12 12 13 14 13 11 8 6 6 7 7 7 7 7 7 8 10 9 8 8 7 7 7 7 8 9 9 10 9 7 7 7 6 6 7 7 5 3
6 5 5 5 7 11 15 15 13 14 17 19 20 19 19 17 19 19 20 21 23 25 28 27 24 24 25 24 23 24 27 27 24 23 24 25 25 23 22 21 20 19 18 17 17 16 14 13 12 12 12 12 11 9 7 6 5 5 5 5 5 4 6 8 7 7 7 5 5 6 6 6 7 7 7 7 6 7 6 6 5 5 6 6 4
6 6 6 5 8 13 18 20 20 17 14 17 19 19 20 21 21 19 20 21 21 22 27 28 24 22 24 25 24 25 27 27 25 24 25 25 25 25 24 23 22 21 20 18 17 16 15 14 13 12 12 12 11 10 10 8 7 6 5 5 5 5 5 5 4 5 7 6 4 5 4 4 4 4 4 4 3 4 5 5 4 5 6 6 7
6 6 6 6 10 15 18 20 22 22 18 16 17 19 20 21 21 22 24 22 19 22 26 27 24 23 24 25 26 26 26 27 26 25 26 26 25 25 24 24 24 23 21 20 18 17 15 14 14 13 12 12 11 11 11 10 9 8 7 7 6 6 5 4 3 5 7 6 5 3 2 2 3 3 3 2 3 3 4 4 3 4 5 6 7
6 6 6 6 9 13 17 19 21 21 20 18 17 20 22 23 22 22 23 21 21 24 29 30 28 28 27 25 26 27 26 27 28 28 27 26 26 24 23 24 25 24 23 21 19 17 16 15 15 14 13 12 11 11 11 11 11 11 10 10 9 9 9 8 7 6 7 6 6 4 2 1 2 1 2 2 1 2 3 3 3 4 5 6 7
6 6 5 7 10 12 15 18 20 20 20 18 18 20 24 25 25 23 21 21 23 26 27 28 27 26 25 25 27 28 27 25 24 25 25 23 24 25 22 22 23 23 23 22 19 18 17 16 16 15 14 13 12 12 12 12 12 12 12 12 12 11 11 11 11 10 9 7 7 6 5 4 1 1 1 2 1 1 2 3 3 3 4 6 7
6 6 5 7 10 11 13 14 16 18 20 20 19 20 23 24 25 24 22 20 23 24 23 22 21 20 21 21 21 22 25 24 18 18 20 19 19 21 21 22 24 24 23 22 20 18 17 17 16 15 15 14 13 13 13 13 13 13 13 13 13 13 13 13 13 12 11 10 9 9 8 7 4 2 2 3 2 1 2 3 4 5 6 7 8
5 6 6 6 7 8 10 12 14 16 18 20 21 21 21 22 22 23 22 20 21 20 18 17 17 16 17 17 15 12 15 20 19 19 22 22 21 22 20 20 22 22 21 21 20 19 18 17 17 16 16 16 15 15 15 15 15 16 15 14 14 14 14 14 14 14 14 13 11 10 9 9 7 6 5 4 4 4 4 5 6 7 8 9 10
5 5 5 4 5 7 9 12 14 16 16 18 20 21 22 22 21 21 21 20 20 17 16 17 17 18 17 17 16 15 14 19 23 22 23 24 24 23 19 16 16 16 16 16 17 18 18 18 18 18 18 18 17 17 17 17 18 18 18 17 16 16 16 16 16 16 16 15 14 11 11 11 10 8 7 6 6 6 6 6 6 7 9 10 11
5 5 4 4 4 5 8 11 13 15 16 16 18 20 21 23 23 22 22 22 22 20 18 17 15 13 10 7 12 18 19 19 18 17 17 19 20 19 18 17 15 13 13 13 13 14 15 15 16 17 18 17 18 19 20 21 22 22 21 21 20 19 18 18 18 18 17 17 16 13 13 14 12 10 9 8 8 7 6 6 5 6 9 10 10
5 5 5 4 4 4 6 9 11 13 15 16 17 18 18 20 21 21 22 22 22 22 20 17 13 10 8 6 9 15 16 14 13 13 14 15 16 16 16 16 15 15 14 13 13 13 14 14 14 15 14 14 15 17 19 21 23 24 24 24 23 22 21 21 21 20 19 18 17 16 15 16 14 12 11 10 9 8 7 6 6 7 9 9 9
5 6 6 6 5 5 6 8 10 12 15 16 17 16 15 16 17 18 19 19 19 19 17 15 14 13 14 14 14 14 14 12 12 13 12 12 12 12 11 12 12 13 14 14 14 14 15 15 16 16 16 15 15 17 17 17 18 22 25 25 25 24 24 24 24 24 22 20 19 18 17 17 16 14 12 11 10 9 7 6 6 8 9 9 8
3 5 7 7 6 6 8 10 11 13 14 14 14 13 13 13 13 14 15 16 16 16 15 15 15 13 13 13 11 10 10 10 10 10 9 8 8 7 8 9 9 10 11 10 10 11 12 13 15 17 18 17 16 16 16 16 16 18 21 23 24 25 26 26 27 26 25 23 22 21 19 19 18 16 13 12 11 9 7 6 7 9 10 9 8
2 3 4 6 7 8 10 11 11 12 13 14 14 12 11 10 10 10 11 12 13 13 13 13 13 11 10 9 8 8 9 9 8 8 7 7 7 7 7 7 8 8 7 7 8 9 10 11 13 15 15 16 15 15 15 16 17 19 20 21 22 24 26 27 28 28 27 25 24 23 22 21 20 17 15 13 12 10 7 7 8 9 10 10 9
2 4 5 5 5 5 7 11 13 12 13 14 14 13 11 9 8 8 8 8 9 10 10 10 9 8 9 9 9 9 10 9 8 8 7 6 6 5 5 5 5 4 5 6 7 7 8 10 12 14 14 14 14 13 14 15 16 18 20 20 20 21 23 25 27 29 29 28 27 26 25 23 21 18 16 14 13 11 9 8 8 9 10 10 10
6 8 7 7 8 10 11 10 11 13 13 13 14 13 11 10 10 8 7 6 6 6 7 8 7 6 7 9 9 9 9 9 9 9 8 7 6 5 3 2 1 1 2 3 4 4 5 6 8 9 11 11 11 11 11 12 13 14 16 18 19 20 22 24 25 28 29 29 29 28 26 23 21 18 16 14 13 11 10 9 9 9 10 10 11
8 9 8 8 10 14 16 16 14 13 12 11 11 11 10 8 9 8 7 6 5 4 5 6 5 5 6 7 7 7 8 9 9 9 8 6 5 4 3 1 1 2 3 3 4 5 6 7 8 8 9 10 10 11 11 12 12 12 12 14 16 18 20 22 23 26 29 30 30 29 26 24 21 18 16 13 12 11 11 10 9 9 10 11 12
7 8 8 9 14 17 18 16 14 15 15 13 11 9 7 5 5 5 6 5 4 2 3 5 6 5 5 6 5 4 5 7 7 6 6 5 5 4 4 4 4 5 5 6 6 7 8 9 9 10 10 10 11 12 13 13 12 11 11 11 13 15 17 19 21 24 27 29 28 27 24 21 18 16 14 12 11 11 10 10 9 9 10 10 10
6 7 7 8 12 14 14 12 11 13 15 15 14 12 9 8 6 3 3 2 1 1 2 4 8 7 6 6 5 5 7 8 7 5 4 4 5 5 5 5 6 7 7 8 8 9 10 10 10 10 12 12 12 13 14 14 13 12 10 11 11 12 13 16 18 21 24 25 24 22 19 15 14 13 12 11 10 10 10 10 10 10 10 10 10
8 10 8 7 9 9 7 7 7 9 11 10 11 10 9 9 9 6 4 3 2 3 4 2 4 7 8 8 7 6 8 9 8 7 6 6 6 6 6 7 7 7 8 9 10 10 11 12 11 12 13 14 14 14 14 15 14 12 10 10 10 10 10 12 15 17 19 19 17 16 14 13 13 13 11 10 10 10 10 10 10 10 10 11 11
9 11 10 7 8 7 3 5 7 7 7 8 8 8 9 11 12 10 9 7 6 6 5 4 3 2 4 6 7 6 7 8 8 8 8 8 8 9 8 7 7 8 9 10 11 12 13 13 13 13 14 14 15 15 14 15 14 12 9 8 9 10 11 13 14 15 15 15 14 13 13 13 12 11 9 10 11 12 11 11 10 9 9 10 11
9 12 11 8 7 6 3 4 6 6 6 6 7 6 8 12 14 14 13 12 11 10 8 6 5 5 5 4 4 5 5 6 7 8 9 9 9 9 9 9 9 10 10 11 12 13 13 14 14 15 14 14 15 14 14 13 13 11 8 7 9 12 14 15 16 16 15 14 14 13 12 11 10 9 9 10 10 10 9 8 7 8 9 11 12
13 15 15 12 12 12 9 7 8 9 10 10 8 6 8 11 13 11 10 11 11 13 14 12 10 8 7 7 7 8 8 7 7 8 8 9 10 11 12 13 12 11 11 11 11 12 13 13 14 13 13 12 12 11 11 10 10 9 8 8 11 14 15 16 16 15 14 12 11 9 8 7 8 8 8 8 7 5 5 5 6 8 9 10 10
16 18 18 18 18 18 15 14 14 15 16 15 11 7 8 11 13 14 13 14 13 14 15 15 14 13 11 9 8 8 10 10 10 10 11 12 14 15 16 16 14 12 11 9 9 10 12 12 12 11 9 8 7 7 7 7 8 8 8 9 11 14 16 16 15 13 11 10 8 7 6 6 5 5 5 4 3 4 6 8 9 9 9 8 8
19 19 20 20 20 21 20 18 18 17 17 15 13 11 10 9 10 11 12 14 14 15 15 15 15 15 15 12 10 9 10 10 10 11 12 14 14 15 16 16 14 13 10 8 8 9 10 10 9 7 6 5 5 5 5 7 8 9 9 10 12 13 14 14 14 12 10 9 8 7 6 5 4 2 1 3 6 8 9 9 8 7 6 6 7
18 19 18 17 16 17 19 19 18 16 13 10 8 8 9 10 9 8 8 9 10 11 12 14 14 13 13 12 11 10 10 9 10 11 13 14 14 14 14 14 14 13 11 8 8 8 8 7 7 5 5 5 5 6 7 8 9 9 10 10 11 12 13 13 13 12 10 8 7 6 5 4 1 2 4 6 7 8 7 5 5 5 5 6 8
13 15 16 16 14 13 14 15 16 15 13 12 10 8 6 5 6 7 7 6 5 6 7 9 9 10 10 11 11 11 12 12 13 15 16 16 16 15 15 15 16 15 13 10 9 9 8 8 7 6 6 7 8 8 9 9 10 10 11 11 11 12 12 11 11 10 8 7 6 5 3 1 2 4 6 6 6 6 5 5 5 6 7 7 8
11 11 13 14 13 12 12 12 13 13 12 12 11 10 8 7 7 8 8 8 7 7 6 7 7 8 9 9 11 12 14 15 16 17 18 19 18 18 18 18 18 17 16 14 13 12 11 11 10 9 9 10 11 12 11 11 11 11 11 10 10 10 9 9 8 7 5 4 3 2 1 2 3 4 4 3 4 4 5 5 5 5 6 8 9
11 11 12 12 12 12 12 12 12 11 10 11 11 10 10 9 9 10 11 11 11 11 10 9 8 9 9 9 10 11 11 13 16 19 20 18 17 16 15 16 17 18 19 18 17 17 15 14 12 11 12 14 14 14 13 12 11 10 10 8 8 7 7 6 6 5 4 3 2 0 1 1 1 0 1 2 3 4 5 5 5 6 8 10 11
11 10 10 10 11 12 12 12 11 10 9 9 9 9 9 9 9 10 10 11 12 13 13 14 13 12 12 11 11 12 11 11 13 17 19 18 15 13 12 12 14 17 20 20 20 20 19 17 15 14 15 16 16 16 15 13 11 10 9 8 7 7 6 4 4 4 3 2 2 2 3 4 4 4 4 4 5 6 7 7 8 9 10 11 12
8 8 8 9 11 12 12 10 8 7 8 10 11 11 11 11 11 11 11 11 11 11 12 14 15 15 15 14 14 14 14 14 14 14 15 15 13 13 13 13 13 16 19 21 21 20 19 17 17 17 17 18 18 17 15 14 12 10 9 8 6 5 4 3 2 2 3 4 5 7 7 6 5 5 5 6 6 7 8 9 10 11 12 13 14
8 9 10 11 11 11 10 9 9 10 12 14 15 15 16 16 16 16 15 14 14 14 14 14 13 14 15 16 16 16 15 15 15 14 12 12 12 13 13 13 14 16 18 19 18 18 19 18 17 17 18 19 20 19 16 13 11 9 7 6 5 4 4 4 4 5 7 8 8 7 7 6 6 7 7 7 8 9 10 11 12 14 15 16 17
12 13 13 13 12 11 10 11 13 14 15 17 19 20 21 21 20 20 19 19 19 19 19 18 17 15 15 15 16 17 17 16 16 15 13 13 13 13 14 15 16 17 17 17 15 15 17 18 17 17 16 14 16 19 18 13 11 9 7 5 5 5 6 7 8 8 8 8 7 7 7 7 7 7 8 8 10 12 13 14 16 17 18 19 20
14 14 14 14 13 12 12 13 14 15 16 17 18 19 20 21 22 22 22 23 22 21 22 22 21 20 19 17 16 17 18 18 18 17 18 17 16 14 15 16 16 16 15 15 13 11 13 15 15 15 14 11 13 18 18 14 11 9 7 7 8 9 10 10 9 8 7 7 6 6 6 6 6 7 8 9 11 13 14 16 18 20 21 21 22
Wind_Direction
179 181 181 183 182 175 180 168 150 150 152 151 152 153 154 155 153 151 153 155 154 153 152 149 145 143 143 143 145 141 136 136 136 134 131 126 118 113 110 106 108 112 113 113 112 101 94 102 107 112 111 131 169 181 181 189 191 185 185 184 187 190 183 185 197 207 216 220 208 216 217 212 219 215 186 146 137 131 122 125 133 140 175 204 216
168 178 179 178 175 177 183 167 154 155 154 154 155 156 157 158 157 156 157 160 161 159 158 156 151 146 145 145 145 141 137 135 131 128 128 127 125 122 122 125 124 110 105 123 130 107 92 99 102 102 102 109 139 163 180 190 191 193 189 175 180 190 181 178 185 198 212 210 201 222 259 259 248 233 223 219 181 155 137 106 123 148 161 170 188
167 177 179 175 173 180 182 168 161 159 156 157 158 159 159 160 160 160 162 165 165 161 159 158 155 151 147 145 145 140 138 139 135 132 133 135 133 132 135 133 123 108 100 115 131 122 100 104 102 96 95 101 124 147 162 178 184 192 194 183 179 180 175 173 175 179 177 173 156 79 310 316 309 292 249 234 230 206 213 216 148 149 151 154 163
170 173 175 171 173 183 177 166 165 161 158 159 159 161 161 163 164 164 167 170 167 163 158 157 157 156 149 144 144 139 135 136 134 134 135 133 129 131 141 142 127 109 100 108 123 125 108 105 102 93 93 96 104 111 106 122 165 189 201 202 190 177 176 176 181 181 166 167 148 65 40 42 328 287 282 249 245 233 233 225 192 168 148 169 191
167 169 176 173 174 182 173 166 168 164 162 161 162 164 165 168 169 169 172 172 169 165 163 163 159 154 148 141 139 134 131 133 132 132 133 134 130 123 125 134 135 118 97 97 109 117 111 106 103 98 98 99 99 97 90 86 101 146 186 203 206 197 189 180 188 193 182 179 145 95 70 37 242 239 49 318 270 238 226 195 195 198 193 216 230
170 172 175 171 169 172 170 170 170 166 165 165 167 169 169 171 172 174 175 176 177 174 172 172 164 157 152 146 141 136 134 138 138 136 137 139 140 132 124 125 131 122 96 87 95 116 124 115 107 109 107 105 104 99 92 86 87 102 141 183 205 206 195 180 184 197 194 189 142 101 80 334 251 178 113 6 344 320 260 214 213 221 206 235 250
172 175 172 164 165 167 171 174 172 168 168 168 170 173 173 174 175 177 178 180 184 182 178 173 166 163 162 158 152 145 143 144 144 142 142 143 144 140 133 130 132 124 99 86 89 110 126 120 112 118 118 113 109 103 96 91 89 92 105 125 151 185 191 179 176 196 203 199 193 164 116 36 356 136 146 154 12 304 281 230 241 267 249 247 248
172 176 174 166 170 172 173 176 173 169 169 171 173 175 177 178 177 180 183 181 178 175 175 173 169 167 166 162 157 153 150 147 147 145 142 139 136 131 125 127 135 130 112 97 93 101 111 110 108 114 118 115 110 106 101 95 93 93 96 102 106 126 175 173 168 180 189 189 209 203 171 69 24 73 83 113 127 155 320 319 313 300 271 261 260
168 170 174 175 179 176 174 174 173 172 173 174 176 177 180 180 179 182 185 179 172 170 171 172 171 168 166 163 158 157 154 150 149 146 144 139 134 132 131 130 134 133 127 117 105 102 104 104 103 107 112 112 109 106 103 100 97 95 95 99 100 103 113 124 131 128 114 129 186 204 193 139 94 82 71 86 98 99 36 336 350 351 334 335 317
168 176 180 181 181 176 172 172 172 174 175 176 178 180 181 181 181 184 188 181 174 172 171 170 169 168 167 163 159 159 157 152 150 149 150 149 142 142 143 137 132 127 125 126 120 111 107 104 98 98 105 114 116 114 111 107 102 98 97 100 102 102 105 104 104 104 98 101 135 167 176 155 89 68 61 76 87 86 84 36 350 358 355 14 24
179 180 172 165 170 172 171 171 172 174 175 177 179 181 182 182 183 184 188 184 178 176 175 172 170 169 168 165 162 163 161 156 154 154 156 155 151 149 148 144 138 133 127 126 127 122 117 112 103 99 100 106 111 114 119 119 113 109 105 104 105 106 107 104 99 99 95 90 97 114 127 123 99 76 65 70 79 78 81 55 344 360 330 355 31
167 154 137 133 154 169 171 173 175 174 174 177 180 183 185 185 185 185 187 185 182 181 179 177 174 171 169 168 167 167 166 162 159 159 160 159 156 154 152 150 147 144 139 131 131 134 130 122 115 110 106 102 99 101 110 119 121 125 124 118 114 115 118 115 106 102 98 93 91 96 105 105 98 92 82 74 75 77 89 98 8 17 355 360 39
129 128 143 154 163 169 171 176 179 179 178 178 180 184 185 186 187 186 183 180 178 179 182 181 176 171 169 170 171 171 171 170 166 164 163 161 159 159 159 159 156 153 149 141 138 143 142 135 127 120 114 107 100 97 102 112 120 126 131 131 127 124 124 125 119 110 104 99 98 101 106 103 97 94 90 83 82 80 80 74 36 45 42 17 40
116 122 136 157 173 176 178 179 183 186 183 181 181 184 186 188 188 181 170 168 171 175 183 183 175 169 169 171 173 174 176 176 173 169 167 166 165 165 164 162 159 156 155 151 145 145 146 144 139 134 128 120 109 102 99 103 113 115 115 120 126 127 125 121 119 115 109 104 106 109 109 105 100 98 96 89 89 90 78 60 45 87 63 38 48
105 107 111 136 166 182 189 186 187 189 187 185 185 185 186 179 147 100 109 142 163 175 182 181 173 166 168 172 174 177 180 182 179 175 172 171 170 168 166 162 158 156 158 156 150 147 146 144 142 143 143 137 127 119 106 101 107 106 104 105 110 123 133 124 115 115 112 104 102 107 106 97 86 84 89 87 84 85 80 62 57 89 65 27 44
92 93 91 96 118 159 189 193 190 189 188 189 187 189 187 155 99 83 101 144 168 183 188 181 171 164 169 176 178 180 183 185 185 183 181 179 175 173 169 163 159 158 158 158 155 151 148 146 145 147 150 147 139 134 124 115 116 114 111 107 101 107 126 127 119 115 110 102 96 99 102 90 74 75 87 93 90 80 72 59 52 67 82 43 24
78 81 81 69 72 87 153 187 187 183 184 187 188 191 180 147 136 150 164 174 180 187 189 181 174 166 168 179 184 186 187 188 189 187 186 186 183 181 177 169 165 163 161 159 157 156 153 150 148 148 154 156 150 147 140 131 132 130 124 118 111 109 119 127 126 118 110 105 97 89 93 94 85 86 90 95 95 76 66 61 48 53 66 80 88
69 66 55 38 46 60 78 133 167 173 179 182 185 186 166 154 190 193 180 179 183 184 180 177 182 176 171 181 190 191 192 191 191 190 190 191 190 189 186 179 174 170 167 163 161 160 158 156 153 152 156 161 158 157 155 143 137 138 133 125 121 120 123 128 132 132 126 120 108 94 98 109 102 93 90 88 83 68 58 57 50 46 48 59 101
87 82 69 52 49 58 69 81 110 146 169 175 175 173 163 175 200 195 182 185 188 186 177 177 190 188 178 184 194 196 196 195 195 195 194 196 195 194 193 189 184 178 175 171 168 167 163 160 158 156 160 165 164 161 165 165 151 144 144 136 137 146 138 131 132 141 146 146 127 106 103 114 109 98 94 88 76 64 50 46 49 42 35 30 27
107 101 92 80 65 64 72 77 86 105 135 159 165 165 167 180 191 193 198 196 187 184 179 179 194 197 186 188 196 198 196 196 198 199 200 201 199 198 197 195 190 186 184 180 177 174 169 166 164 162 164 169 171 168 170 176 174 169 168 161 162 170 160 144 139 147 155 161 147 112 92 99 115 120 113 90 68 51 34 32 41 32 26 19 5
95 93 88 83 76 75 78 82 87 94 107 133 158 170 176 184 191 203 214 205 183 179 181 184 196 204 200 196 197 197 196 199 201 202 204 204 201 199 198 197 194 191 190 188 186 184 179 175 173 171 170 172 176 176 175 180 185 187 189 185 185 187 180 176 177 162 157 163 165 139 91 80 104 138 151 107 70 55 39 38 53 41 35 30 11
86 83 80 79 79 83 87 89 90 92 97 116 142 164 177 186 190 201 214 207 187 183 185 188 193 201 205 203 200 196 196 203 204 204 207 206 204 204 199 196 197 196 195 194 192 191 190 187 184 181 179 178 182 186 186 190 195 197 199 199 201 202 196 192 197 191 177 178 187 186 181 147 85 82 169 163 83 54 41 42 51 41 31 30 17
90 83 80 82 82 86 91 94 95 95 98 109 128 147 165 180 189 198 209 207 197 192 189 188 189 194 198 201 200 198 201 205 202 202 206 204 204 206 203 202 203 201 199 200 200 199 198 198 196 191 188 186 188 193 197 202 205 206 209 210 211 213 209 204 205 206 200 199 201 200 202 206 194 50 158 179 139 28 8 14 23 18 8 4 1
99 98 91 89 87 85 88 92 99 102 103 110 122 137 153 169 181 190 199 203 198 194 191 188 190 190 190 192 192 194 200 201 195 197 200 198 201 206 209 211 211 206 203 203 205 205 203 204 205 204 202 199 199 203 207 212 215 215 216 217 218 221 222 220 219 217 213 211 208 205 207 210 211 214 206 197 201 252 303 316 325 329 332 334 335
123 116 104 99 95 90 91 94 99 105 107 110 120 132 148 162 174 184 193 197 194 193 193 192 195 194 188 184 171 165 185 192 195 203 201 196 202 207 208 209 207 206 207 208 210 211 209 209 211 214 213 212 212 214 216 220 224 224 222 223 224 225 227 228 229 228 224 221 219 214 211 213 217 219 213 210 214 231 261 279 293 304 311 317 319
138 124 118 118 111 104 103 103 102 107 111 113 117 125 137 150 163 174 183 189 189 190 191 194 199 195 187 182 172 170 185 192 194 201 201 200 206 209 210 208 201 199 202 207 213 216 215 216 219 223 223 223 224 225 227 230 232 230 227 227 228 230 232 232 231 231 230 229 229 224 218 220 224 224 217 218 224 230 247 266 282 302 312 313 312
140 130 132 130 124 120 114 111 108 107 110 116 120 122 127 134 144 155 165 173 178 178 178 180 185 185 182 183 182 187 198 200 198 203 209 213 216 220 225 226 219 212 207 206 211 215 218 220 223 226 226 228 231 232 235 238 237 235 231 229 229 230 233 235 234 233 231 230 231 228 224 225 228 226 221 222 229 232 245 261 278 308 317 314 311
134 131 139 135 123 112 105 110 112 110 108 110 114 117 121 125 131 141 150 158 165 168 167 167 173 187 204 214 194 188 195 206 213 218 220 222 223 226 232 234 233 233 229 227 229 230 232 230 225 225 229 235 239 240 241 242 242 239 235 232 231 230 232 234 235 235 233 229 228 228 227 227 228 227 227 230 233 236 244 251 269 306 317 314 312
130 132 135 135 133 123 115 119 119 116 114 111 111 110 112 116 123 133 141 148 155 160 162 167 177 187 192 190 184 180 185 197 210 218 221 225 228 229 232 236 240 241 242 247 251 251 250 247 243 246 254 260 258 252 248 246 245 242 238 235 233 233 233 233 232 233 232 228 226 227 226 226 226 226 231 237 237 241 249 252 273 307 315 312 309
95 124 126 130 138 135 130 131 130 129 125 120 117 115 110 107 110 121 133 142 149 152 153 159 165 167 168 173 175 175 177 182 190 201 209 214 217 219 221 226 232 237 244 252 258 259 260 260 258 259 262 263 261 257 253 251 250 247 243 238 236 235 235 234 233 230 228 225 224 225 224 223 223 226 232 239 241 246 254 260 282 306 312 310 305
88 105 116 122 126 127 126 125 128 134 134 128 125 124 122 116 108 109 119 133 144 146 145 148 151 154 157 159 162 165 169 178 185 193 203 208 212 221 227 230 236 245 256 267 274 276 275 274 272 269 265 263 262 264 264 263 263 260 254 248 243 240 238 236 234 229 226 223 220 220 219 217 219 223 229 236 242 246 250 262 284 301 305 301 298
109 54 35 55 67 75 100 111 116 124 132 137 139 137 136 134 129 122 118 121 131 139 148 154 155 163 174 175 177 179 181 192 197 193 192 195 204 216 224 234 243 254 269 276 281 285 287 287 284 281 278 277 275 276 275 274 273 270 265 259 253 248 243 238 234 230 226 222 218 215 214 214 217 221 226 233 238 240 243 258 279 292 294 291 291
80 71 49 44 44 36 37 59 88 104 117 134 140 134 131 137 140 139 138 139 139 139 153 164 163 170 185 186 187 187 188 190 181 170 167 163 162 169 167 169 209 246 276 282 289 299 305 307 301 291 284 283 284 284 281 279 279 277 272 265 260 255 250 243 237 231 227 223 217 212 209 211 216 220 224 229 231 233 242 256 268 276 279 279 279
70 75 56 35 40 45 39 33 40 60 84 109 119 110 109 125 136 138 142 151 161 162 172 183 179 174 176 174 172 170 172 172 164 161 168 172 173 177 178 202 263 287 299 306 311 313 316 318 318 312 301 293 291 291 289 286 285 282 275 268 263 261 256 250 243 235 228 223 217 212 210 209 211 216 222 223 224 231 243 253 258 263 270 272 271
57 70 65 40 38 43 40 34 31 36 50 64 66 62 69 87 118 151 157 154 166 188 215 206 196 185 182 184 190 191 184 179 173 174 183 192 204 216 225 243 262 274 283 293 303 312 317 319 319 317 310 301 295 290 287 286 286 282 274 269 267 265 260 254 246 237 229 222 216 211 208 209 212 217 220 218 220 231 242 251 259 264 267 268 266
57 65 74 64 59 54 38 26 25 22 26 33 34 34 41 48 58 104 139 150 194 301 303 220 206 200 195 192 204 227 223 211 209 218 221 212 215 228 244 258 265 268 274 283 294 304 310 311 309 306 302 299 297 292 286 283 282 277 270 269 269 268 262 252 240 229 220 213 209 206 207 213 216 214 209 209 219 231 240 247 253 254 252 252 254
53 47 40 33 45 51 28 354 338 338 341 350 7 17 22 24 30 38 36 24 359 356 356 314 233 217 208 208 224 243 230 216 217 227 226 223 231 243 253 259 263 268 275 284 294 302 305 304 299 294 292 292 292 292 290 284 277 269 265 266 265 257 243 228 216 208 203 200 201 203 204 203 200 198 200 213 228 237 239 239 238 239 242 248 255
50 36 32 37 38 36 11 296 297 319 332 335 347 355 354 355 358 357 351 347 342 339 349 6 358 290 235 230 234 233 221 216 221 227 228 233 241 243 246 253 265 274 281 289 297 302 302 301 298 295 293 290 287 288 288 281 272 266 260 255 243 224 205 190 181 177 180 181 179 181 185 186 191 200 213 226 234 237 235 232 233 241 254 266 274
31 16 11 20 25 18 354 295 310 333 339 331 324 317 315 319 325 332 334 331 326 317 312 320 330 325 312 287 263 247 238 233 237 242 242 244 245 244 250 262 273 278 280 285 293 301 305 304 301 299 297 292 285 282 278 268 261 260 257 239 220 204 186 172 166 163 166 171 173 178 188 198 209 220 226 229 230 231 230 234 248 265 282 291 294
12 8 4 0 356 350 338 323 326 325 319 318 306 258 235 253 266 274 284 289 291 291 292 295 296 296 297 296 289 283 277 267 260 258 255 258 264 268 272 275 276 274 273 277 287 299 305 305 301 298 295 288 279 271 263 251 247 250 245 225 208 197 181 169 166 169 171 174 178 183 190 203 215 217 219 223 227 234 252 276 294 301 306 307 306
7 8 9 3 357 351 339 326 322 319 315 317 312 279 229 229 240 248 255 261 264 269 274 279 283 284 285 287 289 290 286 281 279 277 275 274 275 276 276 276 270 262 262 270 285 295 297 295 291 286 281 274 265 258 249 236 230 228 220 208 197 188 180 172 170 173 177 175 173 175 174 174 187 196 203 221 259 301 310 312 313 313 315 317 317
358 1 6 5 3 1 354 344 336 327 317 312 309 302 292 275 266 271 279 279 274 268 265 266 270 273 276 280 288 294 296 294 291 287 283 279 276 272 269 264 257 252 256 268 281 285 283 277 272 267 261 249 233 228 222 214 211 207 203 200 190 180 179 179 172 165 163 162 160 165 171 172 178 198 270 319 322 319 317 316 315 316 320 323 318
350 351 358 4 6 4 1 359 358 355 349 344 336 321 312 300 293 304 315 304 291 282 272 266 261 258 262 270 276 281 286 289 291 292 290 286 282 275 264 254 249 249 252 256 263 264 258 251 246 238 227 216 206 199 191 190 194 193 190 188 182 173 173 178 176 166 159 159 159 163 171 178 209 304 320 322 319 314 311 309 309 307 309 312 310
348 347 349 355 357 355 355 355 355 358 0 4 12 15 5 346 338 350 360 353 335 321 301 285 274 268 268 271 272 274 277 280 284 288 288 286 283 277 267 258 253 250 246 241 237 233 227 222 219 210 201 195 189 182 175 173 178 180 177 174 172 168 166 171 173 167 160 160 162 170 184 219 294 306 309 309 309 309 304 298 296 293 293 298 304
339 342 344 344 342 343 346 342 339 342 342 344 352 358 358 354 345 340 338 336 333 329 317 306 298 292 288 285 281 278 278 279 280 282 283 282 281 278 274 269 260 248 238 228 217 213 213 211 205 199 192 187 181 175 170 169 172 173 169 166 166 167 169 175 175 167 159 154 153 173 238 275 284 289 301 316 331 335 328 317 307 298 299 306 310
322 329 334 331 327 329 331 327 324 324 325 327 332 335 335 334 329 324 321 318 315 311 306 299 292 288 288 290 287 281 278 278 277 272 269 271 274 275 277 278 267 247 231 220 209 204 204 204 202 197 190 183 178 175 173 171 171 171 168 168 174 176 176 178 170 152 138 130 121 164 237 226 214 109 34 15 6 358 349 342 333 324 323 322 319
309 320 328 328 322 316 311 310 311 311 313 314 314 317 323 325 323 322 319 311 305 302 299 294 289 286 283 282 283 282 280 282 279 270 261 257 259 260 263 270 263 241 222 211 203 199 197 197 195 192 187 183 179 178 177 173 171 173 172 171 177 176 166 157 146 131 121 120 126 131 130 122 103 75 45 20 7 358 349 343 338 334 331 328 323
313 323 326 328 325 316 307 303 306 308 309 307 305 307 312 316 317 317 316 312 307 303 297 292 290 288 283 279 278 279 279 280 281 274 261 250 245 244 247 256 257 241 223 209 200 198 200 202 198 191 185 182 181 182 181 179 179 182 180 173 167 157 144 136 131 120 116 120 124 122 115 100 72 48 32 17 6 356 348 342 339 335 332 329 328
312 315 315 315 314 310 304 301 304 307 306 305 303 303 305 307 308 308 308 308 307 306 302 297 293 288 284 280 276 275 274 274 272 265 253 241 232 228 232 237 238 234 228 219 212 212 214 214 208 199 190 186 186 185 183 181 183 183 181 175 161 139 131 127 119 118 123 126 125 114 95 68 42 27 18 8 358 350 345 341 339 338 337 336 336
315 316 312 309 305 300 295 296 301 305 305 303 302 301 300 300 299 300 301 302 301 300 298 295 291 287 284 281 277 273 269 265 261 252 240 235 232 226 222 219 215 217 222 226 229 231 226 218 210 203 200 201 198 188 180 176 177 174 171 166 148 133 130 128 125 125 126 124 115 94 65 43 30 18 9 4 357 351 347 345 343 341 339 338 336
322 318 316 316 316 314 310 308 309 309 306 302 298 295 294 294 293 293 294 294 294 293 289 285 283 280 277 276 276 275 270 262 255 244 233 228 225 219 213 209 208 210 215 218 219 222 221 218 212 203 197 199 194 182 174 172 174 172 169 160 145 134 129 128 129 131 123 110 98 78 55 39 24 12 5 2 356 351 348 345 341 338 337 336 334